Latest Weather Observations for Bankstown

IDN60901

Issued at 3:51 pm EST Monday 4 May 2015 (issued every 10 minutes, with the page automatically refreshed every 10 minutes)

About weather observations | Map of Sydney area stations | Latest observations for Sydney area | Other Formats
Station Details ID: 066137 Name: BANKSTOWN AIRPORT AWS Lat: -33.92 Lon: 150.99 Height: 6.5 m
Data from the previous 72 hours. | See also: Recent months at Bankstown
Date/Time
EST
Tmp

°C
App
Tmp
°C
Dew
Point
°C
Rel
Hum
%
Delta-T

°C
Wind Press
QNH
hPa
Press
MSL
hPa
Rain
since
9 am
mm
Dir
 
Spd
km/h
Gust
km/h
Spd
kts
Gust
kts
04/03:30pm 21.6 21.8 14.7 65 4.1 S 7 9 4 5 1013.2 1013.2 0.0
04/03:00pm 21.8 22.2 14.7 64 4.2 SSW 6 9 3 5 1013.2 1013.2 0.0
04/02:30pm 21.8 22.5 14.4 63 4.3 SW 4 9 2 5 1013.1 1013.1 0.0
04/02:00pm 21.9 22.6 14.5 63 4.3 NW 4 7 2 4 1013.2 1013.2 0.0
04/01:30pm 21.6 21.7 14.0 62 4.4 SSE 6 9 3 5 1013.5 1013.5 0.0
04/01:00pm 21.6 21.3 14.5 64 4.2 ESE 9 13 5 7 1014.0 1014.0 0.0
04/12:30pm 21.1 20.3 14.0 64 4.1 SE 11 15 6 8 1014.4 1014.4 0.0
04/12:00pm 21.2 20.9 14.4 65 4.0 SSE 9 13 5 7 1014.8 1014.8 0.0
04/11:30am 21.0 21.0 14.2 65 4.0 SW 7 13 4 7 1015.3 1015.3 0.0
04/11:00am 20.9 20.4 13.8 64 4.1 SW 9 13 5 7 1015.5 1015.5 0.0
04/10:30am 20.1 18.7 13.3 65 3.9 SSW 13 17 7 9 1015.7 1015.7 0.0
04/10:00am 20.0 18.7 13.7 67 3.6 SW 13 17 7 9 1015.9 1015.9 0.0
04/09:30am 19.2 18.1 13.2 68 3.4 SW 11 17 6 9 1016.0 1016.0 0.0
04/09:00am 18.9 17.4 13.1 69 3.3 SW 13 20 7 11 1016.2 1016.2 0.2
04/08:30am 18.4 17.3 13.0 71 3.0 SW 11 15 6 8 1016.3 1016.3 0.2
04/08:00am 17.9 16.8 13.0 73 2.7 SW 11 15 6 8 1016.1 1016.1 0.2
04/07:30am 17.4 16.6 12.9 75 2.5 SSW 9 13 5 7 1015.9 1015.9 0.2
04/07:00am 17.1 18.0 13.0 77 2.3 CALM 0 0 0 0 1015.6 1015.6 0.2
04/06:30am 16.9 17.8 12.8 77 2.3 CALM 0 0 0 0 1015.2 1015.2 0.2
04/06:00am 17.3 17.0 13.2 77 2.3 SW 7 9 4 5 1015.1 1015.1 0.2
04/05:30am 17.3 17.2 13.2 77 2.3 WSW 6 9 3 5 1015.1 1015.1 0.2
04/05:00am 17.2 16.6 13.5 79 2.1 SW 9 9 5 5 1014.9 1014.9 0.2
04/04:30am 17.0 16.8 13.7 81 1.9 SSW 7 9 4 5 1014.7 1014.7 0.2
04/04:00am 16.9 16.9 13.6 81 1.9 W 6 6 3 3 1014.6 1014.6 0.2
04/03:30am 16.8 16.8 13.5 81 1.9 W 6 7 3 4 1014.7 1014.7 0.2
04/03:00am 16.8 17.1 13.5 81 1.9 W 4 6 2 3 1014.7 1014.7 0.2
04/02:30am 16.8 17.5 13.5 81 1.9 W 2 6 1 3 1014.9 1014.9 0.2
04/02:00am 16.8 17.1 13.3 80 2.0 W 4 7 2 4 1015.1 1015.1 0.2
04/01:30am 17.0 16.9 13.3 79 2.1 W 6 7 3 4 1015.2 1015.2 0.2
04/01:00am 17.2 18.3 13.5 79 2.1 CALM 0 0 0 0 1015.3 1015.3 0.2
04/12:30am 17.1 17.3 13.2 78 2.2 W 4 6 2 3 1015.3 1015.3 0.2
04/12:00am 17.1 17.0 13.4 79 2.1 W 6 7 3 4 1015.3 1015.3 0.2
 
Date/Time
EST
Tmp

°C
App
Tmp
°C
Dew
Point
°C
Rel
Hum
%
Delta-T

°C
Wind Press
QNH
hPa
Press
MSL
hPa
Rain
since
9 am
mm
Dir
 
Spd
km/h
Gust
km/h
Spd
kts
Gust
kts
03/11:30pm 17.4 17.3 13.3 77 2.3 W 6 7 3 4 1015.5 1015.5 0.2
03/11:00pm 17.2 17.0 13.1 77 2.3 W 6 7 3 4 1015.5 1015.5 0.2
03/10:30pm 17.2 17.0 13.1 77 2.3 W 6 7 3 4 1015.6 1015.6 0.2
03/10:00pm 17.2 16.8 12.9 76 2.4 WNW 7 9 4 5 1015.5 1015.5 0.2
03/09:30pm 18.0 17.6 13.1 73 2.8 SW 7 9 4 5 1015.6 1015.6 0.2
03/09:00pm 18.6 18.6 13.5 72 2.9 SSW 6 9 3 5 1015.7 1015.7 0.2
03/08:30pm 19.0 17.3 13.6 71 3.1 SSW 15 26 8 14 1015.7 1015.7 0.2
03/08:00pm 19.4 17.1 14.0 71 3.1 SSW 19 28 10 15 1015.6 1015.6 0.2
03/07:30pm 19.4 17.8 14.0 71 3.1 SSW 15 19 8 10 1015.7 1015.7 0.2
03/07:00pm 19.6 18.5 14.2 71 3.1 S 13 19 7 10 1015.4 1015.4 0.2
03/06:30pm 19.7 17.8 14.3 71 3.1 S 17 22 9 12 1015.1 1015.1 0.2
03/06:00pm 19.8 18.4 14.6 72 3.0 SSE 15 20 8 11 1014.6 1014.6 0.2
03/05:30pm 20.4 18.6 15.4 73 3.0 SSE 19 30 10 16 1014.2 1014.2 0.0
03/05:00pm 20.5 19.2 15.7 74 2.9 SSE 17 26 9 14 1014.1 1014.1 0.0
03/04:30pm 20.9 19.7 16.1 74 2.9 SSE 17 24 9 13 1013.9 1013.9 0.0
03/04:00pm 21.2 19.9 15.7 71 3.3 SSE 17 22 9 12 1013.7 1013.7 0.0
03/03:30pm 21.5 19.2 15.8 70 3.4 S 22 33 12 18 1013.2 1013.2 0.0
03/03:00pm 21.5 19.2 15.8 70 3.4 S 22 30 12 16 1013.0 1013.0 0.0
03/02:30pm 22.6 20.1 17.1 71 3.4 S 26 35 14 19 1012.9 1012.9 0.0
03/02:00pm 22.4 20.5 16.7 70 3.5 SSE 22 33 12 18 1013.1 1013.1 0.0
03/01:30pm 22.1 20.6 16.8 72 3.2 S 20 28 11 15 1013.3 1013.3 0.0
03/01:00pm 22.1 20.7 17.0 73 3.1 SSE 20 26 11 14 1013.5 1013.5 0.0
03/12:30pm 21.8 20.7 17.2 75 2.8 S 19 28 10 15 1013.7 1013.7 0.0
03/12:00pm 21.2 20.0 17.4 79 2.3 S 20 28 11 15 1014.0 1014.0 0.0
03/11:49am 20.9 20.0 16.9 78 2.4 S 17 28 9 15 1014.2 1014.2 0.0
03/11:30am 21.0 19.9 17.4 80 2.2 S 19 26 10 14 1014.3 1014.3 0.0
03/11:00am 20.4 20.5 17.4 83 1.8 S 13 19 7 10 1014.5 1014.5 0.0
03/10:30am 19.9 20.9 17.7 87 1.4 SSW 9 19 5 10 1014.6 1014.6 0.0
03/10:00am 19.4 20.2 17.4 88 1.2 W 9 13 5 7 1014.6 1014.6 0.0
03/09:30am 19.1 20.4 17.2 89 1.2 SSW 6 9 3 5 1014.9 1014.9 0.0
03/09:00am 18.7 19.4 17.0 90 1.0 SW 9 13 5 7 1015.0 1015.0 26.4
03/08:30am 18.4 18.7 16.9 91 0.9 SW 11 15 6 8 1015.1 1015.1 26.4
03/08:00am 18.3 19.3 16.8 91 0.9 SW 7 11 4 6 1014.9 1014.9 26.4
03/07:30am 18.1 19.1 16.8 92 0.8 SW 7 11 4 6 1014.4 1014.4 26.4
03/07:00am 18.2 19.2 16.9 92 0.8 SW 7 9 4 5 1013.8 1013.8 26.4
03/06:30am 18.1 19.1 16.8 92 0.8 SW 7 9 4 5 1013.5 1013.5 26.4
03/06:00am 18.2 18.8 16.9 92 0.8 SW 9 13 5 7 1013.6 1013.6 26.4
03/05:30am 18.3 19.0 17.0 92 0.8 SSW 9 11 5 6 1013.5 1013.5 26.4
03/05:00am 18.2 19.2 16.9 92 0.8 SSW 7 9 4 5 1013.4 1013.4 26.4
03/04:30am 18.1 19.1 16.8 92 0.8 SSW 7 9 4 5 1013.3 1013.3 26.4
03/04:00am 18.0 19.9 16.7 92 0.8 SSW 2 6 1 3 1013.4 1013.4 26.4
03/03:30am 17.9 18.4 16.6 92 0.8 SW 9 11 5 6 1013.2 1013.2 26.4
03/03:00am 17.9 18.8 16.6 92 0.8 SSW 7 9 4 5 1013.5 1013.5 26.4
03/02:30am 18.1 20.4 16.8 92 0.8 CALM 0 0 0 0 1013.8 1013.8 26.4
03/02:00am 18.0 18.9 16.7 92 0.8 S 7 7 4 4 1014.1 1014.1 26.4
03/01:41am 18.1 19.1 16.8 92 0.8 S 7 7 4 4 1014.4 1014.4 26.4
03/01:30am 18.1 19.1 16.8 92 0.8 S 7 9 4 5 1014.4 1014.4 26.4
03/01:06am 18.4 19.5 17.1 92 0.8 S 7 9 4 5 1014.7 1014.7 26.2
03/01:00am 18.4 19.7 17.1 92 0.8 SSW 6 7 3 4 1014.8 1014.8 26.2
03/12:50am 18.4 20.1 17.1 92 0.8 SSW 4 7 2 4 1014.9 1014.9 26.2
03/12:30am 18.4 19.5 17.1 92 0.8 S 7 13 4 7 1014.8 1014.8 26.2
03/12:00am 18.4 19.5 17.1 92 0.8 SSE 7 9 4 5 1015.2 1015.2 26.0
 
Date/Time
EST
Tmp

°C
App
Tmp
°C
Dew
Point
°C
Rel
Hum
%
Delta-T

°C
Wind Press
QNH
hPa
Press
MSL
hPa
Rain
since
9 am
mm
Dir
 
Spd
km/h
Gust
km/h
Spd
kts
Gust
kts
02/11:33pm 18.5 19.3 17.2 92 0.8 SSE 9 13 5 7 1015.1 1015.1 25.2
02/11:30pm 18.4 19.1 17.1 92 0.8 SSE 9 13 5 7 1015.1 1015.1 25.2
02/11:17pm 18.4 18.7 17.1 92 0.8 SSE 11 13 6 7 1015.2 1015.2 24.6
02/11:07pm 18.4 19.1 17.1 92 0.8 S 9 13 5 7 1015.4 1015.4 23.8
02/11:00pm 18.3 18.6 17.0 92 0.8 S 11 13 6 7 1015.4 1015.4 23.6
02/10:30pm 18.4 19.1 17.1 92 0.8 S 9 11 5 6 1016.0 1016.0 21.2
02/10:00pm 18.6 19.3 17.1 91 0.9 SE 9 9 5 5 1016.5 1016.5 17.6
02/09:30pm 18.4 20.4 16.9 91 0.9 SSE 2 7 1 4 1016.6 1016.6 13.4
02/09:28pm 18.3 20.2 16.8 91 0.9 S 2 6 1 3 1016.6 1016.6 13.2
02/09:00pm 18.2 20.1 16.7 91 0.9 S 2 6 1 3 1016.4 1016.4 12.6
02/08:39pm 18.3 19.3 16.8 91 0.9 S 7 9 4 5 1016.4 1016.4 12.6
02/08:30pm 18.3 19.3 16.8 91 0.9 S 7 9 4 5 1016.3 1016.3 12.4
02/08:25pm 18.3 19.2 16.6 90 1.0 S 7 9 4 5 1016.3 1016.3 12.4
02/08:23pm 18.3 19.2 16.6 90 1.0 S 7 9 4 5 1016.3 1016.3 12.4
02/08:18pm 18.3 19.2 16.6 90 1.0 S 7 9 4 5 1016.3 1016.3 12.0
02/08:00pm 18.4 19.5 16.7 90 1.0 WSW 6 7 3 4 1016.3 1016.3 11.6
02/07:51pm 18.5 19.7 16.8 90 1.0 WSW 6 9 3 5 1016.4 1016.4 10.8
02/07:35pm 18.5 19.7 16.8 90 1.0 WSW 6 7 3 4 1016.5 1016.5 8.0
02/07:30pm 18.5 19.7 16.8 90 1.0 WSW 6 7 3 4 1016.4 1016.4 6.8
02/07:24pm 18.6 19.6 16.9 90 1.0 WSW 7 9 4 5 1016.4 1016.4 6.8
02/07:03pm 18.7 18.6 17.0 90 1.0 NNW 13 17 7 9 1016.4 1016.4 6.4
02/07:00pm 18.5 18.3 16.8 90 1.0 NNW 13 17 7 9 1016.4 1016.4 6.4
02/06:30pm 18.6 20.6 16.9 90 1.0 S 2 7 1 4 1016.3 1016.3 6.4
02/06:00pm 18.6 19.2 16.9 90 1.0 SSW 9 11 5 6 1016.2 1016.2 6.2
02/05:30pm 18.6 19.2 16.8 89 1.1 S 9 11 5 6 1016.2 1016.2 6.2
02/05:29pm 18.6 19.2 16.8 89 1.1 S 9 11 5 6 1016.3 1016.3 6.2
02/05:00pm 18.9 20.0 17.0 89 1.1 SSE 7 9 4 5 1016.2 1016.2 6.2
02/04:38pm 19.1 20.2 17.1 88 1.2 SSE 7 9 4 5 1016.4 1016.4 6.2
02/04:30pm 19.0 20.1 17.0 88 1.2 SE 7 9 4 5 1016.5 1016.5 6.2
02/04:00pm 19.0 19.2 16.8 87 1.3 E 11 17 6 9 1016.6 1016.6 6.0
02/03:40pm 19.3 19.9 16.9 86 1.5 ENE 9 15 5 8 1016.7 1016.7 5.2
02/03:30pm 19.3 19.1 16.7 85 1.6 ENE 13 28 7 15 1016.8 1016.8 4.6
02/03:16pm 19.9 18.3 16.5 81 2.0 ESE 20 32 11 17 1016.7 1016.7 3.2
02/03:00pm 20.7 19.3 16.9 79 2.3 SE 20 24 11 13 1016.3 1016.3 2.6
02/02:30pm 20.7 19.4 16.7 78 2.4 ESE 19 24 10 13 1016.5 1016.5 2.6
02/02:23pm 20.5 18.9 16.1 76 2.6 ESE 19 28 10 15 1016.6 1016.6 2.6
02/02:03pm 20.8 19.0 16.0 74 2.9 ESE 20 33 11 18 1016.8 1016.8 2.4
02/02:00pm 21.7 20.0 16.2 71 3.3 ESE 20 32 11 17 1016.7 1016.7 1.4
02/01:30pm 22.1 20.1 16.4 70 3.5 E 22 33 12 18 1016.8 1016.8 1.4
02/01:00pm 22.2 19.7 16.2 69 3.6 E 24 32 13 17 1017.0 1017.0 1.4
02/12:30pm 21.2 21.2 18.0 82 2.0 SE 15 20 8 11 1017.6 1017.6 1.4
02/12:00pm 21.1 20.0 17.7 81 2.1 SE 20 28 11 15 1018.3 1018.3 1.4
02/11:30am 20.4 19.2 17.6 84 1.7 SE 20 28 11 15 1018.8 1018.8 1.4
02/11:18am 20.7 19.6 17.7 83 1.8 SE 20 24 11 13 1018.8 1018.8 1.2
02/11:00am 20.4 18.9 16.8 80 2.2 SE 20 30 11 16 1019.2 1019.2 1.2
02/10:30am 20.9 19.6 16.9 78 2.4 SSE 19 26 10 14 1019.6 1019.6 0.0
02/10:00am 20.4 20.8 18.2 87 1.4 SSE 13 17 7 9 1020.1 1020.1 0.0
02/09:30am 18.6 20.4 17.4 93 0.7 S 4 7 2 4 1020.6 1020.6 0.0
02/09:00am 16.7 18.5 15.4 92 0.8 CALM 0 0 0 0 1021.0 1021.0 18.0
02/08:30am 15.6 16.9 14.1 91 0.8 CALM 0 0 0 0 1021.3 1021.3 18.0
02/08:00am 14.4 15.3 12.8 90 0.9 CALM 0 0 0 0 1021.1 1021.1 18.0
02/07:30am 13.9 14.6 12.3 90 0.9 CALM 0 0 0 0 1020.8 1020.8 18.0
02/07:00am 14.2 15.0 12.6 90 0.9 CALM 0 0 0 0 1020.8 1020.8 18.0
02/06:30am 14.1 14.8 12.3 89 1.0 CALM 0 0 0 0 1020.8 1020.8 18.0
02/06:11am 14.5 15.3 12.7 89 1.0 CALM 0 0 0 0 1020.6 1020.6 18.0
02/06:09am 14.6 15.5 12.8 89 1.0 CALM 0 0 0 0 1020.6 1020.6 18.0
02/06:00am 14.8 15.7 13.0 89 1.0 CALM 0 0 0 0 1020.7 1020.7 18.0
02/05:37am 14.8 15.7 12.8 88 1.1 CALM 0 0 0 0 1020.6 1020.6 18.0
02/05:30am 15.3 16.3 13.3 88 1.1 CALM 0 0 0 0 1020.6 1020.6 18.0
02/05:16am 15.6 16.7 13.6 88 1.1 CALM 0 4 0 2 1020.5 1020.5 18.0
02/05:00am 15.3 15.1 13.0 86 1.3 SSW 6 9 3 5 1020.5 1020.5 18.0
02/04:57am 14.9 14.4 12.6 86 1.3 SSW 7 9 4 5 1020.5 1020.5 18.0
02/04:30am 16.8 17.1 14.4 86 1.4 NNE 6 7 3 4 1020.6 1020.6 18.0
02/04:00am 16.8 16.9 14.4 86 1.4 E 7 9 4 5 1020.7 1020.7 18.0
02/03:30am 17.5 17.2 15.5 88 1.2 E 11 15 6 8 1021.0 1021.0 18.0
02/03:00am 16.5 17.0 14.9 90 0.9 S 6 9 3 5 1021.3 1021.3 18.0
02/02:41am 16.5 17.0 14.9 90 0.9 S 6 7 3 4 1021.4 1021.4 18.0
02/02:30am 16.3 17.8 14.7 90 0.9 CALM 0 6 0 3 1021.5 1021.5 18.0
02/02:28am 16.3 17.4 14.7 90 0.9 S 2 6 1 3 1021.5 1021.5 18.0
02/02:00am 16.6 16.8 14.8 89 1.0 SSE 7 11 4 6 1021.7 1021.7 17.8
02/01:39am 17.4 16.8 15.7 90 1.0 SE 13 19 7 10 1021.8 1021.8 17.8
02/01:30am 17.3 16.3 15.6 90 1.0 E 15 22 8 12 1021.9 1021.9 17.8
02/01:00am 16.5 16.8 15.0 91 0.9 NNW 7 19 4 10 1022.3 1022.3 13.8
02/12:56am 16.4 16.9 14.9 91 0.9 NW 6 19 3 10 1022.3 1022.3 13.2
02/12:38am 16.2 17.0 14.7 91 0.9 NW 4 7 2 4 1022.3 1022.3 12.8
02/12:37am 16.2 17.0 14.7 91 0.9 NW 4 7 2 4 1022.4 1022.4 12.8
02/12:30am 16.2 17.3 14.7 91 0.9 NW 2 7 1 4 1022.3 1022.3 12.6
02/12:13am 16.3 17.9 14.8 91 0.9 CALM 0 0 0 0 1022.6 1022.6 11.4
02/12:02am 16.2 17.7 14.7 91 0.9 CALM 0 0 0 0 1022.8 1022.8 11.0
02/12:00am 16.2 17.7 14.7 91 0.9 CALM 0 0 0 0 1022.8 1022.8 11.0
 
Date/Time
EST
Tmp

°C
App
Tmp
°C
Dew
Point
°C
Rel
Hum
%
Delta-T

°C
Wind Press
QNH
hPa
Press
MSL
hPa
Rain
since
9 am
mm
Dir
 
Spd
km/h
Gust
km/h
Spd
kts
Gust
kts
01/11:45pm 15.9 17.3 14.3 90 0.9 CALM 0 0 0 0 1023.0 1023.0 11.0
01/11:30pm 16.3 17.9 14.8 91 0.9 CALM 0 0 0 0 1022.9 1022.9 11.0
01/11:22pm 16.3 17.8 14.7 90 0.9 CALM 0 0 0 0 1023.0 1023.0 11.0
01/11:03pm 16.4 17.2 14.8 90 0.9 WSW 4 9 2 5 1023.3 1023.3 10.6
01/11:00pm 16.3 16.7 14.7 90 0.9 WSW 6 9 3 5 1023.3 1023.3 10.2
01/10:30pm 16.1 16.8 14.5 90 0.9 S 4 7 2 4 1023.5 1023.5 10.2
01/10:23pm 16.1 17.5 14.5 90 0.9 CALM 0 0 0 0 1023.4 1023.4 10.2
01/10:11pm 16.1 17.5 14.5 90 0.9 CALM 0 2 0 1 1023.7 1023.7 10.2
01/10:10pm 16.2 17.7 14.6 90 0.9 CALM 0 4 0 2 1023.7 1023.7 10.2
01/10:00pm 16.1 17.2 14.5 90 0.9 SSE 2 7 1 4 1023.7 1023.7 10.2
01/09:30pm 15.8 15.9 14.0 89 1.0 SE 6 7 3 4 1023.7 1023.7 7.0
01/09:22pm 15.8 16.7 14.0 89 1.0 S 2 7 1 4 1023.9 1023.9 6.2
01/09:00pm 15.3 15.2 13.3 88 1.1 SSW 6 7 3 4 1023.8 1023.8 5.4
01/08:30pm 15.5 15.3 13.5 88 1.1 SSW 7 9 4 5 1023.9 1023.9 5.4
01/08:00pm 15.7 16.8 13.5 87 1.2 CALM 0 0 0 0 1024.2 1024.2 5.4
01/07:30pm 16.1 17.3 13.8 86 1.3 CALM 0 0 0 0 1023.8 1023.8 5.4
01/07:00pm 16.3 16.1 13.6 84 1.5 SSW 7 9 4 5 1023.6 1023.6 5.4
01/06:30pm 16.7 16.1 13.6 82 1.7 SSE 9 13 5 7 1024.1 1024.1 5.4
01/06:00pm 17.6 17.6 14.1 80 2.0 SSE 7 9 4 5 1024.5 1024.5 5.4
01/05:30pm 18.4 17.4 14.5 78 2.3 SE 13 17 7 9 1024.4 1024.4 5.4
01/05:00pm 19.3 18.5 15.0 76 2.5 ESE 13 17 7 9 1024.4 1024.4 5.4
01/04:30pm 19.7 18.2 14.1 70 3.2 SE 15 20 8 11 1024.5 1024.5 5.4
01/04:00pm 20.0 17.5 13.5 66 3.7 ESE 19 28 10 15 1024.5 1024.5 5.4

Latest Capital City Observations: Canberra | Sydney | Melbourne | Brisbane | Adelaide | Perth | Hobart | Darwin

Other Formats:

Comma delimited format used in spreadsheet applications
http://www.bom.gov.au/fwo/IDN60901/IDN60901.94765.axf

JavaScript Object Notation format (JSON) in row-major order
http://www.bom.gov.au/fwo/IDN60901/IDN60901.94765.json